Regional Weather Roundup
Issued by NWS

Home | Current Version | Previous Version | Graphics & Text | Print | Product List | Glossary On
Versions: 1 2 3 4 5 6 7 8 9 10 11 12 13 14 15 16 17 18 19 20 21 22 23 24 25 26 27 28 29 30 31 32 33 34 35 36 37 38 39 40 41 42 43 44 45 46 47 48 49 50
000
ASUS43 KIND 261809
RWRIN

WEATHER ROUNDUP FOR INDIANA
NATIONAL WEATHER SERVICE INDIANAPOLIS IN
200 PM EDT TUE MAY 26 2015

NOTE: "FAIR" INDICATES FEW OR NO CLOUDS BELOW 12,000 FEET WITH NO
SIGNIFICANT WEATHER AND/OR OBSTRUCTIONS TO VISIBILITY.

* - STATION DOES NOT REPORT WEATHER SUCH AS PRECIPITATION OR FOG.

+ - STATION NOT QUALITY CONTROLLED BY THE NATIONAL WEATHER SERVICE.
    USE DATA WITH CAUTION...ESPECIALLY DEWPOINT AND RELATIVE
    HUMIDITY OBSERVATIONS.

INZ001>003-010>013-019-020-261900-
NORTHWEST INDIANA

CITY           SKY/WX    TMP DP  RH WIND       PRES   REMARKS
GARY /AIRPORT/ RAIN      75  66  73 SE15      29.83F
KNOX *+        CLOUDY    77  63  61 S17G23    29.86F
LA PORTE +     CLOUDY    78  66  68 S17G24    29.87F
6HR MIN TEMP:  67; 6HR MAX TEMP:  79;

MICHIGAN CITY+ CLOUDY    73  64  73 S10G18    29.85F
MONTICELLO +   HVY RAIN  70  69  95 S18G26    29.89F
6HR MIN TEMP:  67; 6HR MAX TEMP:  78; 6HR PCP:  0.15;

RENSSELAER +   CLOUDY    72  70  94 S18G28    29.88S FOG
VALPARAISO     CLOUDY    76  65  68 S16G29    29.85F
6HR MIN TEMP:  67; 6HR MAX TEMP:  78; 6HR PCP: TRACE;


$$

LMZ046-743>745-261900-
SOUTHERN LAKE MICHIGAN

STATION/POSITION TIME  TEMP    WIND        PRES    WAVE
                       AIR SEA DIR/SP/G            HT
                 (UTC) (F)     (DEG/KT/KT) (MB)    (FT)
BURNS HARBOR     1800   77     180/ 13/ 25 1010.2F
MICHIGAN CITY    1700   76     150/ 17/ 25   N/A
5NW MICH CITY    1800   70 52  180/ 14/ 21   N/A     2

$$

INZ004-005-014>016-021>024-261900-
NORTH CENTRAL INDIANA

CITY           SKY/WX    TMP DP  RH WIND       PRES   REMARKS
ELKHART        CLOUDY    81  63  54 S12G22    29.90F
GOSHEN         PTSUNNY   81  64  56 S15       29.90F
6HR MIN TEMP:  66; 6HR MAX TEMP:  83;

LOGANSPORT +   CLOUDY    79  59  50 S23       29.91F
PERU/GRISSOM   PTSUNNY   80  64  58 S26G36    29.90F
6HR MIN TEMP:  68; 6HR MAX TEMP:  82;

ROCHESTER +    CLOUDY    81  64  57 S18G26    29.90F
SOUTH BEND     PTSUNNY   80  64  58 S21G32    29.88F
6HR MIN TEMP:  67; 6HR MAX TEMP:  80;

WARSAW +       PTSUNNY   79  64  61 S8G18     29.91F

$$

INZ006>009-017-018-025>027-261900-
NORTHEAST INDIANA

CITY           SKY/WX    TMP DP  RH WIND       PRES   REMARKS
ANGOLA *+      MOSUNNY   82  79  89 S18G26    29.94F
AUBURN +       PTSUNNY   82  59  44 S12       29.95F
FORT WAYNE     PTSUNNY   82  64  54 S22G31    29.95F
6HR MIN TEMP:  68; 6HR MAX TEMP:  84;

HUNTINGTON +   CLOUDY    80  64  57 S14G26    29.94F
6HR MIN TEMP:  67; 6HR MAX TEMP:  82;


$$

INZ028-029-035-036-043>045-051>053-261900-
WEST CENTRAL INDIANA

CITY           SKY/WX    TMP DP  RH WIND       PRES   REMARKS
CRAWFORDSVL +  CLOUDY    73  61  67 S25G36    29.93F
6HR MIN TEMP:  66; 6HR MAX TEMP:  76; 6HR PCP:  0.05;

GREENCASTLE +  CLOUDY    70  61  73 S8G18     29.95F
LAFAYETTE      LGT RAIN  70  68  93 S10       29.90S
6HR MIN TEMP:  68; 6HR MAX TEMP:  76; 6HR PCP:  0.13;

TERRE HAUTE    CLOUDY    78  65  63 SW20G31   29.92F
6HR MIN TEMP:  69; 6HR MAX TEMP:  78; 6HR PCP: TRACE;


$$

INZ030>032-037>040-046>048-054>057-064-065-261900-
CENTRAL INDIANA

CITY           SKY/WX    TMP DP  RH WIND       PRES   REMARKS
ANDERSON       PTSUNNY   81  57  44 S17G35    29.98F
CP ATTERBURY + CLOUDY    72  68  88 S8        29.97F
COLUMBUS       CLOUDY    75  64  69 SW20      29.97F
FRANKFORT +    CLOUDY    78  65  63 S18G28    29.94F
6HR MIN TEMP:  68; 6HR MAX TEMP:  82;

GREENWOOD *+   CLOUDY    79  63  57 S20       29.96F
INDIANAPOLIS   LGT RAIN  71  66  84 S21G30    29.93F
6HR MIN TEMP:  69; 6HR MAX TEMP:  80; 6HR PCP:  0.07;

-EAGLE CREEK   CLOUDY    78  65  63 S14G22    29.94F
6HR MIN TEMP:  69; 6HR MAX TEMP:  79; 6HR PCP: TRACE;

KOKOMO *+      CLOUDY    79  64  61 S21G33    29.92F
6HR MIN TEMP:  68; 6HR MAX TEMP:  81;

MARION +       CLOUDY    81  60  49 S23G33    29.95F
MT COMFORT *+  PTSUNNY   81  52  36 S20G29    29.96F
SHELBYVILLE    HVY RAIN  76  67  73 S21G32    29.97F
6HR MIN TEMP:  71; 6HR MAX TEMP:  84; 6HR PCP: TRACE;

ZIONSVILLE +   CLOUDY    75  66  72 SW12G20   29.95F
6HR MIN TEMP:  70; 6HR MAX TEMP:  82; 6HR PCP:  0.01;


$$

INZ033-034-041-042-049-050-058-059-261900-
EAST CENTRAL INDIANA

CITY           SKY/WX    TMP DP  RH WIND       PRES   REMARKS
MUNCIE         PTSUNNY   83  62  49 S16G30    29.96F
6HR MIN TEMP:  69; 6HR MAX TEMP:  84;


$$

INZ060-061-067>069-081>083-085>088-261900-
SOUTHWEST INDIANA

CITY           SKY/WX    TMP DP  RH WIND       PRES   REMARKS
EVANSVILLE     CLOUDY    77  63  61 SW22G36   29.99F
6HR MIN TEMP:  69; 6HR MAX TEMP:  79; 6HR PCP: TRACE;

HUNTINGBURG *+ CLOUDY    72  64  78 S10G21    30.00R
6HR MIN TEMP:  68; 6HR MAX TEMP:  77;

WASHINGTON +   CLOUDY    77  63  61 S17G30    29.95F
6HR MIN TEMP:  68; 6HR MAX TEMP:  78;


$$

INZ062-063-066-070>080-084-089>092-261900-
SOUTH CENTRAL AND SOUTHEAST INDIANA

CITY           SKY/WX    TMP DP  RH WIND       PRES   REMARKS
BLOOMINGTON    LGT RAIN  73  67  81 SW13G28   29.97F
6HR MIN TEMP:  67; 6HR MAX TEMP:  79; 6HR PCP:  0.01;

MADISON *+     PTSUNNY   81  61  50 S18G26    30.03F
NORTH VERNON + PTSUNNY   81  66  61 S15G24    29.99F
SEYMOUR +      CLOUDY    84  64  51 S24G30    29.98F

$$



USA.gov is the U.S. government's official web portal to all federal, state and local government web resources and services.